Location: Spruce Knob
(38.6995°N, 79.5330°W)
Time: 16:10:34
(UTC-04:00)

BlueWalker 3 - Visible Passes

Search period start: 24 March 2023 00:00
Search period end: 03 April 2023 00:00
Orbit: 497 x 515 km, 53.2° (Epoch: 24 March)

Date Brightness Start Highest point End Pass type
(mag) Time Alt. Az. Time Alt. Az. Time Alt. Az.
24 Mar 2.5 05:10:15 55° ENE 05:10:15 55° ENE 05:13:36 10° ESE visible
24 Mar 3.7 06:45:43 10° W 06:48:00 15° SW 06:50:17 10° SSW visible
25 Mar 4.1 04:52:34 21° ESE 04:52:34 21° ESE 04:53:57 10° ESE visible
25 Mar 3.7 06:27:24 14° WSW 06:28:19 15° SW 06:30:28 10° SSW visible
25 Mar 3.9 20:12:35 10° SSE 20:14:08 12° SE 20:15:08 11° ESE visible
25 Mar 3.8 21:48:19 10° SW 21:49:58 24° SW 21:49:58 24° SW visible
26 Mar 4.0 06:10:00 12° SSW 06:10:00 12° SSW 06:10:36 10° SSW visible
26 Mar 2.0 21:28:36 10° SW 21:32:29 74° NW 21:32:35 73° NNW visible
27 Mar 2.1 21:08:50 10° SW 21:12:43 71° NW 21:14:53 25° NE visible
27 Mar 5.3 22:49:24 10° WNW 22:49:41 11° WNW 22:49:41 11° WNW visible
28 Mar 2.2 20:49:03 10° WSW 20:52:56 67° NW 20:56:48 10° NE visible
28 Mar 4.8 22:29:41 10° WNW 22:31:38 15° NNW 22:31:38 15° NNW visible
29 Mar 2.4 20:29:14 10° WSW 20:33:06 65° NW 20:36:58 10° NE visible
29 Mar 4.6 22:09:55 10° WNW 22:12:17 15° NNW 22:13:17 14° N visible
30 Mar 2.5 20:09:23 10° WSW 20:13:15 62° NW 20:17:06 10° NE visible
30 Mar 4.7 21:50:08 10° WNW 21:52:27 15° NNW 21:54:42 10° NNE visible
31 Mar 4.7 21:30:19 10° NW 21:32:35 15° NNW 21:34:51 10° NNE visible
01 Apr 4.7 21:10:27 10° NW 21:12:40 15° NNW 21:14:54 10° NNE visible
02 Apr 4.7 20:50:34 10° NW 20:52:44 14° NNW 20:54:54 10° NNE visible
